Time,TemperatureF,DewpointF,PressureIn,WindDirection,WindDirectionDegrees,WindSpeedMPH,WindSpeedGustMPH,Humidity,HourlyPrecipIn,Conditions,Clouds,dailyrainin,SolarRadiationWatts/m^2,SoftwareType,DateUTC
2013-03-09 00:00:00,55.2,50.4,30.22,ENE,70,0.0,2.3,84,0.00,,,0.00,0.0,WeatherDisplay:10.37,2013-03-09 05:00:00,
2013-03-09 00:05:00,55.2,50.1,30.22,ENE,58,0.2,1.2,83,0.00,,,0.00,0.0,WeatherDisplay:10.37,2013-03-09 05:05:00,
2013-03-09 00:10:00,55.1,50.0,30.21,NE,34,0.2,2.3,83,0.00,,,0.00,0.0,WeatherDisplay:10.37,2013-03-09 05:10:00,
2013-03-09 00:15:00,55.0,49.9,30.21,NE,47,0.2,1.2,83,0.00,,,0.00,0.0,WeatherDisplay:10.37,2013-03-09 05:15:00,
2013-03-09 00:20:00,55.0,49.6,30.21,NE,44,0.8,1.2,82,0.00,,,0.00,0.0,WeatherDisplay:10.37,2013-03-09 05:20:00,
2013-03-09 00:25:00,55.0,49.6,30.21,NE,54,0.5,1.2,82,0.00,,,0.00,0.0,WeatherDisplay:10.37,2013-03-09 05:25:00,
2013-03-09 00:30:00,54.9,49.2,30.21,NE,54,0.2,1.2,81,0.00,,,0.00,0.0,WeatherDisplay:10.37,2013-03-09 05:30:00,
2013-03-09 00:35:00,54.8,49.1,30.21,NE,54,0.5,1.0,81,0.00,,,0.00,0.0,WeatherDisplay:10.37,2013-03-09 05:35:00,
2013-03-09 00:40:00,54.7,49.0,30.21,NE,54,0.0,0.0,81,0.00,,,0.00,0.0,WeatherDisplay:10.37,2013-03-09 05:40:00,
2013-03-09 00:46:00,54.7,48.6,30.21,ENE,75,0.0,2.3,80,0.00,,,0.00,0.0,WeatherDisplay:10.37,2013-03-09 05:46:00,
2013-03-09 00:51:00,54.5,48.1,30.20,ENE,75,0.0,1.2,79,0.00,,,0.00,0.0,WeatherDisplay:10.37,2013-03-09 05:51:00,
2013-03-09 00:56:00,54.3,48.3,30.20,ENE,74,0.0,0.0,80,0.00,,,0.00,0.0,WeatherDisplay:10.37,2013-03-09 05:56:00,
2013-03-09 01:01:00,54.0,48.0,30.20,ENE,75,0.0,0.0,80,0.00,,,0.00,0.0,WeatherDisplay:10.37,2013-03-09 06:01:00,
2013-03-09 01:06:00,53.8,47.8,30.20,ENE,75,0.0,0.0,80,0.00,,,0.00,0.0,WeatherDisplay:10.37,2013-03-09 06:06:00,
2013-03-09 01:11:00,53.6,47.6,30.20,ENE,75,0.0,0.0,80,0.00,,,0.00,0.0,WeatherDisplay:10.37,2013-03-09 06:11:00,
2013-03-09 01:16:00,53.2,47.5,30.20,ENE,75,0.0,0.0,81,0.00,,,0.00,0.0,WeatherDisplay:10.37,2013-03-09 06:16:00,
2013-03-09 01:21:00,52.7,47.0,30.20,ENE,75,0.0,0.0,81,0.00,,,0.00,0.0,WeatherDisplay:10.37,2013-03-09 06:21:00,
2013-03-09 01:26:00,52.5,47.2,30.20,ENE,74,0.0,0.0,82,0.00,,,0.00,0.0,WeatherDisplay:10.37,2013-03-09 06:26:00,
2013-03-09 01:31:00,52.3,47.0,30.20,ENE,75,0.0,0.0,82,0.00,,,0.00,0.0,WeatherDisplay:10.37,2013-03-09 06:31:00,
2013-03-09 01:36:00,52.2,46.9,30.20,ENE,75,0.0,0.0,82,0.00,,,0.00,0.0,WeatherDisplay:10.37,2013-03-09 06:36:00,
2013-03-09 01:41:00,52.1,46.8,30.20,ENE,75,0.0,0.0,82,0.00,,,0.00,0.0,WeatherDisplay:10.37,2013-03-09 06:41:00,
2013-03-09 01:46:00,52.1,46.8,30.20,ENE,75,0.0,0.0,82,0.00,,,0.00,0.0,WeatherDisplay:10.37,2013-03-09 06:46:00,
2013-03-09 01:51:00,52.1,46.8,30.20,ENE,75,0.0,0.0,82,0.00,,,0.00,0.0,WeatherDisplay:10.37,2013-03-09 06:51:00,
2013-03-09 01:56:00,51.9,46.6,30.20,ENE,75,0.0,0.0,82,0.00,,,0.00,0.0,WeatherDisplay:10.37,2013-03-09 06:56:00,
2013-03-09 02:01:00,51.9,46.6,30.20,ENE,75,0.0,0.0,82,0.00,,,0.00,0.0,WeatherDisplay:10.37,2013-03-09 07:01:00,
2013-03-09 02:06:00,51.8,46.8,30.20,ENE,75,0.0,0.0,83,0.00,,,0.00,0.0,WeatherDisplay:10.37,2013-03-09 07:06:00,
2013-03-09 02:11:00,51.5,46.8,30.20,ENE,75,0.0,0.0,84,0.00,,,0.00,0.0,WeatherDisplay:10.37,2013-03-09 07:11:00,
2013-03-09 02:16:00,51.4,47.0,30.19,ENE,68,0.3,2.3,85,0.00,,,0.00,0.0,WeatherDisplay:10.37,2013-03-09 07:16:00,
2013-03-09 02:21:00,52.0,47.6,30.19,ENE,59,0.3,1.2,85,0.00,,,0.00,0.0,WeatherDisplay:10.37,2013-03-09 07:21:00,
2013-03-09 02:26:00,52.4,48.3,30.18,East,90,0.8,3.5,86,0.00,,,0.00,0.0,WeatherDisplay:10.37,2013-03-09 07:26:00,
2013-03-09 02:31:00,52.9,48.8,30.18,ENE,65,0.1,1.2,86,0.00,,,0.00,0.0,WeatherDisplay:10.37,2013-03-09 07:31:00,
2013-03-09 02:36:00,53.4,49.3,30.18,ENE,57,0.3,1.2,86,0.00,,,0.00,0.0,WeatherDisplay:10.37,2013-03-09 07:36:00,
2013-03-09 02:41:00,53.7,49.6,30.18,East,94,0.2,1.2,86,0.00,,,0.00,0.0,WeatherDisplay:10.37,2013-03-09 07:41:00,
2013-03-09 02:46:00,53.8,49.7,30.18,ENE,65,0.6,2.3,86,0.00,,,0.00,0.0,WeatherDisplay:10.37,2013-03-09 07:46:00,
2013-03-09 02:51:00,54.0,49.6,30.17,ENE,71,0.6,3.5,85,0.00,,,0.00,0.0,WeatherDisplay:10.37,2013-03-09 07:51:00,
2013-03-09 02:56:00,54.1,49.7,30.17,ENE,59,0.2,1.2,85,0.00,,,0.00,0.0,WeatherDisplay:10.37,2013-03-09 07:56:00,
2013-03-09 03:01:00,54.1,49.7,30.17,East,80,0.3,2.3,85,0.00,,,0.00,0.0,WeatherDisplay:10.37,2013-03-09 08:01:00,
2013-03-09 03:06:00,54.1,50.0,30.17,NE,53,0.0,0.0,86,0.00,,,0.00,0.0,WeatherDisplay:10.37,2013-03-09 08:06:00,
2013-03-09 03:11:00,53.9,49.8,30.17,NE,53,0.1,1.2,86,0.00,,,0.00,0.0,WeatherDisplay:10.37,2013-03-09 08:11:00,
2013-03-09 03:16:00,53.8,49.7,30.17,NE,53,0.0,0.0,86,0.00,,,0.00,0.0,WeatherDisplay:10.37,2013-03-09 08:16:00,
2013-03-09 03:21:00,53.5,49.7,30.17,NE,53,0.0,0.0,87,0.00,,,0.00,0.0,WeatherDisplay:10.37,2013-03-09 08:21:00,
2013-03-09 03:26:00,53.4,49.6,30.17,NE,53,0.0,0.0,87,0.00,,,0.00,0.0,WeatherDisplay:10.37,2013-03-09 08:26:00,
2013-03-09 03:31:00,53.1,49.3,30.17,NE,53,0.0,0.0,87,0.00,,,0.00,0.0,WeatherDisplay:10.37,2013-03-09 08:31:00,
2013-03-09 03:36:00,52.7,49.2,30.17,NE,53,0.0,0.0,88,0.00,,,0.00,0.0,WeatherDisplay:10.37,2013-03-09 08:36:00,
2013-03-09 03:41:00,52.5,49.4,30.17,NE,53,0.0,0.0,89,0.00,,,0.00,0.0,WeatherDisplay:10.37,2013-03-09 08:41:00,
2013-03-09 03:46:00,52.1,49.0,30.18,NE,53,0.0,0.0,89,0.00,,,0.00,0.0,WeatherDisplay:10.37,2013-03-09 08:46:00,
2013-03-09 03:51:00,51.7,48.9,30.18,NE,53,0.0,0.0,90,0.00,,,0.00,0.0,WeatherDisplay:10.37,2013-03-09 08:51:00,
2013-03-09 03:56:00,51.2,48.7,30.18,NE,53,0.0,0.0,91,0.00,,,0.00,0.0,WeatherDisplay:10.37,2013-03-09 08:56:00,
2013-03-09 04:01:00,50.8,48.6,30.18,NE,53,0.0,0.0,92,0.00,,,0.00,0.0,WeatherDisplay:10.37,2013-03-09 09:01:00,
2013-03-09 04:06:00,50.7,48.5,30.18,NE,53,0.0,0.0,92,0.00,,,0.00,0.0,WeatherDisplay:10.37,2013-03-09 09:06:00,
2013-03-09 04:11:00,50.6,48.7,30.18,NE,53,0.0,0.0,93,0.00,,,0.00,0.0,WeatherDisplay:10.37,2013-03-09 09:11:00,
2013-03-09 04:16:00,50.6,48.7,30.18,NE,53,0.0,0.0,93,0.00,,,0.00,0.0,WeatherDisplay:10.37,2013-03-09 09:16:00,
2013-03-09 04:21:00,50.6,48.7,30.18,NE,53,0.0,0.0,93,0.00,,,0.00,0.0,WeatherDisplay:10.37,2013-03-09 09:21:00,
2013-03-09 04:26:00,50.4,48.5,30.18,NE,53,0.0,0.0,93,0.00,,,0.00,0.0,WeatherDisplay:10.37,2013-03-09 09:26:00,
2013-03-09 04:31:00,50.2,48.3,30.17,NE,53,0.0,0.0,93,0.00,,,0.00,0.0,WeatherDisplay:10.37,2013-03-09 09:31:00,
2013-03-09 04:36:00,49.9,48.0,30.18,NE,53,0.0,0.0,93,0.00,,,0.00,0.0,WeatherDisplay:10.37,2013-03-09 09:36:00,
2013-03-09 04:41:00,50.0,48.3,30.18,NE,53,0.0,0.0,94,0.00,,,0.00,0.0,WeatherDisplay:10.37,2013-03-09 09:41:00,
2013-03-09 04:46:00,49.8,48.1,30.18,NE,53,0.0,0.0,94,0.00,,,0.00,0.0,WeatherDisplay:10.37,2013-03-09 09:46:00,
2013-03-09 04:51:00,49.7,48.0,30.18,NE,53,0.0,0.0,94,0.00,,,0.00,0.0,WeatherDisplay:10.37,2013-03-09 09:51:00,
2013-03-09 04:56:00,49.5,47.8,30.19,NE,53,0.0,0.0,94,0.00,,,0.00,0.0,WeatherDisplay:10.37,2013-03-09 09:56:00,
2013-03-09 05:01:00,49.2,47.8,30.19,NE,53,0.0,0.0,95,0.00,,,0.00,0.0,WeatherDisplay:10.37,2013-03-09 10:01:00,
2013-03-09 05:06:00,49.1,47.7,30.19,NE,53,0.0,0.0,95,0.00,,,0.00,0.0,WeatherDisplay:10.37,2013-03-09 10:06:00,
2013-03-09 05:11:00,48.9,47.5,30.19,NE,53,0.0,0.0,95,0.00,,,0.00,0.0,WeatherDisplay:10.37,2013-03-09 10:11:00,
2013-03-09 05:16:00,48.9,47.5,30.19,NE,53,0.0,0.0,95,0.00,,,0.00,0.0,WeatherDisplay:10.37,2013-03-09 10:16:00,
2013-03-09 05:21:00,48.9,47.8,30.19,NE,53,0.0,0.0,96,0.00,,,0.00,0.0,WeatherDisplay:10.37,2013-03-09 10:21:00,
2013-03-09 05:26:00,48.8,47.7,30.19,NE,53,0.0,0.0,96,0.00,,,0.00,0.0,WeatherDisplay:10.37,2013-03-09 10:26:00,
2013-03-09 05:31:00,48.8,47.7,30.19,NE,53,0.0,0.0,96,0.00,,,0.00,0.0,WeatherDisplay:10.37,2013-03-09 10:31:00,
2013-03-09 05:36:00,48.9,47.8,30.19,NE,53,0.0,0.0,96,0.00,,,0.00,0.0,WeatherDisplay:10.37,2013-03-09 10:36:00,
2013-03-09 05:41:00,49.4,48.6,30.19,ENE,65,0.0,1.2,97,0.00,,,0.00,0.0,WeatherDisplay:10.37,2013-03-09 10:41:00,
2013-03-09 05:46:00,49.8,48.7,30.19,ENE,65,0.2,1.2,96,0.00,,,0.00,0.0,WeatherDisplay:10.37,2013-03-09 10:46:00,
2013-03-09 05:51:00,50.2,49.1,30.19,ENE,57,0.2,2.3,96,0.00,,,0.00,0.0,WeatherDisplay:10.37,2013-03-09 10:51:00,
2013-03-09 05:56:00,50.7,49.3,30.20,East,83,0.2,2.3,95,0.00,,,0.00,0.0,WeatherDisplay:10.37,2013-03-09 10:56:00,
2013-03-09 06:01:00,50.9,49.2,30.20,ENE,69,0.0,0.0,94,0.00,,,0.00,0.0,WeatherDisplay:10.37,2013-03-09 11:01:00,
2013-03-09 06:06:00,51.0,49.0,30.20,NE,45,0.3,3.5,93,0.00,,,0.00,0.0,WeatherDisplay:10.37,2013-03-09 11:06:00,
2013-03-09 06:11:00,51.2,49.2,30.20,East,90,0.0,1.2,93,0.00,,,0.00,0.0,WeatherDisplay:10.37,2013-03-09 11:11:00,
2013-03-09 06:16:00,51.1,49.1,30.21,ENE,57,0.0,0.0,93,0.00,,,0.00,0.0,WeatherDisplay:10.37,2013-03-09 11:16:00,
2013-03-09 06:21:00,51.2,49.2,30.21,ENE,57,0.0,0.0,93,0.00,,,0.00,0.0,WeatherDisplay:10.37,2013-03-09 11:21:00,
2013-03-09 06:26:00,51.0,48.8,30.21,ENE,57,0.0,0.0,92,0.00,,,0.00,0.0,WeatherDisplay:10.37,2013-03-09 11:26:00,
2013-03-09 06:31:00,50.7,48.7,30.21,ENE,57,0.0,0.0,93,0.00,,,0.00,0.0,WeatherDisplay:10.37,2013-03-09 11:31:00,
2013-03-09 06:36:00,50.5,48.6,30.21,ENE,57,0.0,0.0,93,0.00,,,0.00,0.0,WeatherDisplay:10.37,2013-03-09 11:36:00,
2013-03-09 06:41:00,50.4,48.5,30.21,ENE,57,0.0,0.0,93,0.00,,,0.00,0.0,WeatherDisplay:10.37,2013-03-09 11:41:00,
2013-03-09 06:46:00,50.4,48.7,30.21,ENE,57,0.0,0.0,94,0.00,,,0.00,0.0,WeatherDisplay:10.37,2013-03-09 11:46:00,
2013-03-09 06:51:00,50.2,48.5,30.21,ENE,57,0.0,0.0,94,0.00,,,0.00,7.0,WeatherDisplay:10.37,2013-03-09 11:51:00,
2013-03-09 06:56:00,50.0,48.3,30.21,ENE,57,0.0,0.0,94,0.00,,,0.00,11.0,WeatherDisplay:10.37,2013-03-09 11:56:00,
2013-03-09 07:01:00,50.1,48.7,30.21,ENE,57,0.0,0.0,95,0.00,,,0.00,16.0,WeatherDisplay:10.37,2013-03-09 12:01:00,
2013-03-09 07:06:00,50.3,48.6,30.21,ENE,57,0.0,1.2,94,0.00,,,0.00,19.0,WeatherDisplay:10.37,2013-03-09 12:06:00,
2013-03-09 07:11:00,50.4,48.7,30.21,ENE,57,0.2,0.0,94,0.00,,,0.00,23.0,WeatherDisplay:10.37,2013-03-09 12:11:00,
2013-03-09 07:16:00,50.6,48.9,30.21,ENE,57,0.0,0.0,94,0.00,,,0.00,28.0,WeatherDisplay:10.37,2013-03-09 12:16:00,
2013-03-09 07:21:00,51.0,49.3,30.22,ENE,57,0.2,2.0,94,0.00,,,0.00,32.0,WeatherDisplay:10.37,2013-03-09 12:21:00,
2013-03-09 07:26:00,51.4,49.4,30.22,ENE,57,0.1,2.0,93,0.00,,,0.00,35.0,WeatherDisplay:10.37,2013-03-09 12:26:00,
2013-03-09 07:31:00,51.8,49.8,30.22,ENE,57,0.0,1.2,93,0.00,,,0.00,39.0,WeatherDisplay:10.37,2013-03-09 12:31:00,
2013-03-09 07:36:00,52.4,50.1,30.22,ENE,57,0.3,0.0,92,0.00,,,0.00,46.0,WeatherDisplay:10.37,2013-03-09 12:36:00,
2013-03-09 07:41:00,53.0,50.7,30.22,NE,49,0.1,2.3,92,0.00,,,0.00,63.0,WeatherDisplay:10.37,2013-03-09 12:41:00,
2013-03-09 07:46:00,53.8,50.9,30.22,ENE,62,0.1,3.5,90,0.00,,,0.00,142.0,WeatherDisplay:10.37,2013-03-09 12:46:00,
2013-03-09 07:51:00,54.6,51.4,30.22,East,89,0.2,3.0,89,0.00,,,0.00,165.0,WeatherDisplay:10.37,2013-03-09 12:51:00,
2013-03-09 07:56:00,55.4,51.6,30.23,NE,42,2.8,3.5,87,0.00,,,0.00,183.0,WeatherDisplay:10.37,2013-03-09 12:56:00,
2013-03-09 08:01:00,56.1,51.7,30.23,ENE,70,0.4,1.2,85,0.00,OVC,,0.00,202.0,WeatherDisplay:10.37,2013-03-09 13:01:00,
2013-03-09 08:06:00,56.6,51.8,30.23,NE,49,0.8,1.2,84,0.00,OVC,,0.00,220.0,WeatherDisplay:10.37,2013-03-09 13:06:00,
2013-03-09 08:11:00,57.1,52.0,30.23,ENE,69,2.2,3.5,83,0.00,OVC,,0.00,237.0,WeatherDisplay:10.37,2013-03-09 13:11:00,
2013-03-09 08:16:00,57.6,51.8,30.23,NNE,28,2.6,4.6,81,0.00,OVC,,0.00,258.0,WeatherDisplay:10.37,2013-03-09 13:16:00,
2013-03-09 08:21:00,58.1,51.6,30.23,NE,48,1.0,5.8,79,0.00,OVC,,0.00,276.0,WeatherDisplay:10.37,2013-03-09 13:21:00,
2013-03-09 08:26:00,58.7,51.5,30.23,NNE,17,2.4,5.8,77,0.00,OVC,,0.00,301.0,WeatherDisplay:10.37,2013-03-09 13:26:00,
2013-03-09 08:31:00,59.4,51.8,30.23,East,91,0.7,5.8,76,0.00,OVC,,0.00,309.0,WeatherDisplay:10.37,2013-03-09 13:31:00,
2013-03-09 08:36:00,60.0,51.7,30.23,NE,35,2.0,2.3,74,0.00,OVC,,0.00,343.0,WeatherDisplay:10.37,2013-03-09 13:36:00,
2013-03-09 08:41:00,60.5,51.4,30.23,ENE,75,1.9,3.5,72,0.00,OVC,,0.00,353.0,WeatherDisplay:10.37,2013-03-09 13:41:00,
2013-03-09 08:46:00,61.1,51.2,30.23,NNE,22,0.3,3.5,70,0.00,OVC,,0.00,397.0,WeatherDisplay:10.37,2013-03-09 13:46:00,
2013-03-09 08:51:00,61.6,51.3,30.24,NE,41,2.7,4.6,69,0.00,OVC,,0.00,401.0,WeatherDisplay:10.37,2013-03-09 13:51:00,
2013-03-09 08:56:00,62.0,50.9,30.24,North,350,3.7,5.8,67,0.00,OVC,,0.00,253.0,WeatherDisplay:10.37,2013-03-09 13:56:00,
2013-03-09 09:01:00,61.7,50.6,30.24,NE,50,1.6,3.5,67,0.00,OVC,,0.00,413.0,WeatherDisplay:10.37,2013-03-09 14:01:00,
2013-03-09 09:06:00,62.2,50.7,30.24,NE,52,4.2,6.9,66,0.00,OVC,,0.00,455.0,WeatherDisplay:10.37,2013-03-09 14:06:00,
2013-03-09 09:12:00,62.8,51.3,30.24,NE,44,1.0,10.4,66,0.00,OVC,,0.00,439.0,WeatherDisplay:10.37,2013-03-09 14:12:00,
2013-03-09 09:17:00,62.9,50.1,30.24,SE,136,6.1,8.1,63,0.00,OVC,,0.00,436.0,WeatherDisplay:10.37,2013-03-09 14:17:00,
2013-03-09 09:22:00,63.3,50.5,30.23,NE,46,3.6,6.9,63,0.00,OVC,,0.00,522.0,WeatherDisplay:10.37,2013-03-09 14:22:00,
2013-03-09 09:27:00,63.7,50.0,30.23,NNE,22,5.9,6.0,61,0.00,OVC,,0.00,490.0,WeatherDisplay:10.37,2013-03-09 14:27:00,
2013-03-09 09:32:00,63.8,49.6,30.23,ENE,71,5.7,11.5,60,0.00,OVC,,0.00,554.0,WeatherDisplay:10.37,2013-03-09 14:32:00,
2013-03-09 09:37:00,64.3,50.6,30.24,East,83,2.5,5.8,61,0.00,OVC,,0.00,596.0,WeatherDisplay:10.37,2013-03-09 14:37:00,
2013-03-09 09:42:00,64.6,49.9,30.23,NE,54,5.3,9.2,59,0.00,OVC,,0.00,455.0,WeatherDisplay:10.37,2013-03-09 14:42:00,
2013-03-09 09:47:00,64.4,50.2,30.23,NE,42,4.0,8.1,60,0.00,OVC,,0.00,408.0,WeatherDisplay:10.37,2013-03-09 14:47:00,
2013-03-09 09:52:00,64.5,50.3,30.23,ENE,71,2.9,5.0,60,0.00,OVC,,0.00,613.0,WeatherDisplay:10.37,2013-03-09 14:52:00,
2013-03-09 09:57:00,65.3,50.1,30.23,NE,51,3.8,10.4,58,0.00,OVC,,0.00,563.0,WeatherDisplay:10.37,2013-03-09 14:57:00,
2013-03-09 10:02:00,66.0,50.3,30.23,ENE,69,3.3,4.6,57,0.00,OVC,,0.00,605.0,WeatherDisplay:10.37,2013-03-09 15:02:00,
2013-03-09 10:07:00,66.4,50.7,30.24,East,84,2.6,5.8,57,0.00,OVC,,0.00,615.0,WeatherDisplay:10.37,2013-03-09 15:07:00,
2013-03-09 10:12:00,66.8,50.1,30.24,ENE,67,3.9,6.9,55,0.00,OVC,,0.00,664.0,WeatherDisplay:10.37,2013-03-09 15:12:00,
2013-03-09 10:17:00,67.1,49.4,30.24,SE,126,1.0,3.5,53,0.00,OVC,,0.00,657.0,WeatherDisplay:10.37,2013-03-09 15:17:00,
2013-03-09 10:22:00,67.6,49.9,30.24,NNE,24,3.1,5.8,53,0.00,OVC,,0.00,647.0,WeatherDisplay:10.37,2013-03-09 15:22:00,
2013-03-09 10:27:00,68.0,48.7,30.24,NE,37,3.3,8.1,50,0.00,OVC,,0.00,738.0,WeatherDisplay:10.37,2013-03-09 15:27:00,
2013-03-09 10:32:00,67.9,48.6,30.24,NNE,23,3.4,10.4,50,0.00,OVC,,0.00,473.0,WeatherDisplay:10.37,2013-03-09 15:32:00,
2013-03-09 10:37:00,68.1,48.2,30.24,SE,134,4.1,8.1,49,0.00,OVC,,0.00,802.0,WeatherDisplay:10.37,2013-03-09 15:37:00,
2013-03-09 10:42:00,69.1,49.7,30.24,ESE,105,0.7,2.3,50,0.00,OVC,,0.00,807.0,WeatherDisplay:10.37,2013-03-09 15:42:00,
2013-03-09 10:47:00,69.3,49.9,30.24,NE,38,2.3,6.0,50,0.00,OVC,,0.00,758.0,WeatherDisplay:10.37,2013-03-09 15:47:00,
2013-03-09 10:52:00,69.1,48.0,30.24,NE,41,1.6,4.6,47,0.00,OVC,,0.00,809.0,WeatherDisplay:10.37,2013-03-09 15:52:00,
2013-03-09 10:57:00,69.2,47.5,30.24,NW,309,3.0,4.6,46,0.00,OVC,,0.00,768.0,WeatherDisplay:10.37,2013-03-09 15:57:00,
2013-03-09 11:02:00,69.8,47.5,30.24,NW,313,1.3,3.5,45,0.00,OVC,,0.00,745.0,WeatherDisplay:10.37,2013-03-09 16:02:00,
2013-03-09 11:07:00,69.8,47.5,30.23,ESE,115,3.5,4.0,45,0.00,OVC,,0.00,668.0,WeatherDisplay:10.37,2013-03-09 16:07:00,
2013-03-09 11:12:00,70.4,48.0,30.23,NE,41,3.6,6.9,45,0.00,OVC,,0.00,856.0,WeatherDisplay:10.37,2013-03-09 16:12:00,
2013-03-09 11:17:00,70.7,47.7,30.23,East,92,3.3,4.6,44,0.00,OVC,,0.00,831.0,WeatherDisplay:10.37,2013-03-09 16:17:00,
2013-03-09 11:22:00,71.3,46.4,30.23,SE,144,4.0,6.9,41,0.00,OVC,,0.00,905.0,WeatherDisplay:10.37,2013-03-09 16:22:00,
2013-03-09 11:27:00,71.4,47.1,30.22,SSE,167,2.6,5.8,42,0.00,OVC,,0.00,932.0,WeatherDisplay:10.37,2013-03-09 16:27:00,
2013-03-09 11:32:00,72.1,47.1,30.23,NE,41,3.6,9.0,41,0.00,OVC,,0.00,895.0,WeatherDisplay:10.37,2013-03-09 16:32:00,
2013-03-09 11:37:00,71.6,45.3,30.23,ENE,64,5.6,8.1,39,0.00,OVC,,0.00,737.0,WeatherDisplay:10.37,2013-03-09 16:37:00,
2013-03-09 11:42:00,71.0,44.1,30.23,ENE,74,5.2,8.1,38,0.00,OVC,,0.00,744.0,WeatherDisplay:10.37,2013-03-09 16:42:00,
2013-03-09 11:47:00,71.4,44.5,30.23,NNE,23,4.2,8.1,38,0.00,OVC,,0.00,893.0,WeatherDisplay:10.37,2013-03-09 16:47:00,
2013-03-09 11:52:00,71.4,43.8,30.22,East,85,4.7,7.0,37,0.00,OVC,,0.00,659.0,WeatherDisplay:10.37,2013-03-09 16:52:00,
2013-03-09 11:57:00,71.8,44.1,30.22,SE,132,2.6,8.1,37,0.00,OVC,,0.00,770.0,WeatherDisplay:10.37,2013-03-09 16:57:00,
2013-03-09 12:02:00,72.3,44.6,30.21,ENE,75,4.2,8.1,37,0.00,OVC,,0.00,531.0,WeatherDisplay:10.37,2013-03-09 17:02:00,
2013-03-09 12:07:00,71.6,44.6,30.21,ENE,73,1.6,5.8,38,0.00,OVC,,0.00,643.0,WeatherDisplay:10.37,2013-03-09 17:07:00,
2013-03-09 12:12:00,72.1,45.1,30.21,NNW,330,1.9,3.5,38,0.00,OVC,,0.00,550.0,WeatherDisplay:10.37,2013-03-09 17:12:00,
2013-03-09 12:17:00,72.3,45.3,30.22,ENE,58,3.5,5.8,38,0.00,OVC,,0.00,643.0,WeatherDisplay:10.37,2013-03-09 17:17:00,
2013-03-09 12:22:00,72.6,45.5,30.22,NE,44,3.3,6.9,38,0.00,OVC,,0.00,663.0,WeatherDisplay:10.37,2013-03-09 17:22:00,
2013-03-09 12:27:00,72.7,44.9,30.22,NE,42,2.1,4.6,37,0.00,OVC,,0.00,599.0,WeatherDisplay:10.37,2013-03-09 17:27:00,
2013-03-09 12:32:00,72.5,44.7,30.22,ENE,69,5.2,7.0,37,0.00,OVC,,0.00,496.0,WeatherDisplay:10.37,2013-03-09 17:32:00,
2013-03-09 12:37:00,72.0,44.3,30.22,ENE,73,2.3,4.6,37,0.00,OVC,,0.00,494.0,WeatherDisplay:10.37,2013-03-09 17:37:00,
2013-03-09 12:42:00,72.3,44.6,30.21,NNE,28,2.7,5.8,37,0.00,OVC,,0.00,670.0,WeatherDisplay:10.37,2013-03-09 17:42:00,
2013-03-09 12:47:00,73.1,45.3,30.21,NE,36,4.6,6.0,37,0.00,OVC,,0.00,647.0,WeatherDisplay:10.37,2013-03-09 17:47:00,
2013-03-09 12:52:00,73.3,45.4,30.20,NNE,33,1.8,3.5,37,0.00,OVC,,0.00,745.0,WeatherDisplay:10.37,2013-03-09 17:52:00,
2013-03-09 12:57:00,73.8,45.2,30.20,North,9,2.5,5.8,36,0.00,OVC,,0.00,585.0,WeatherDisplay:10.37,2013-03-09 17:57:00,
2013-03-09 13:02:00,73.3,44.7,30.19,North,5,3.5,9.2,36,0.00,OVC,,0.00,754.0,WeatherDisplay:10.37,2013-03-09 18:02:00,
2013-03-09 13:07:00,74.0,44.6,30.19,ENE,67,3.6,10.4,35,0.00,OVC,,0.00,656.0,WeatherDisplay:10.37,2013-03-09 18:07:00,
2013-03-09 13:12:00,74.2,44.8,30.19,NE,40,3.3,4.6,35,0.00,OVC,,0.00,571.0,WeatherDisplay:10.37,2013-03-09 18:12:00,
2013-03-09 13:17:00,73.8,43.7,30.19,NNE,12,3.2,9.2,34,0.00,OVC,,0.00,559.0,WeatherDisplay:10.37,2013-03-09 18:17:00,
2013-03-09 13:22:00,73.3,44.0,30.18,North,350,4.4,8.0,35,0.00,OVC,,0.00,462.0,WeatherDisplay:10.37,2013-03-09 18:22:00,
2013-03-09 13:27:00,73.0,44.5,30.18,ENE,66,3.0,5.8,36,0.00,OVC,,0.00,487.0,WeatherDisplay:10.37,2013-03-09 18:27:00,
2013-03-09 13:32:00,73.5,44.9,30.18,East,80,3.1,6.0,36,0.00,OVC,,0.00,531.0,WeatherDisplay:10.37,2013-03-09 18:32:00,
2013-03-09 13:37:00,73.5,44.2,30.18,North,10,3.2,6.0,35,0.00,OVC,,0.00,406.0,WeatherDisplay:10.37,2013-03-09 18:37:00,
2013-03-09 13:42:00,73.1,44.5,30.18,ENE,66,2.1,5.0,36,0.00,OVC,,0.00,369.0,WeatherDisplay:10.37,2013-03-09 18:42:00,
2013-03-09 13:47:00,72.9,44.4,30.17,North,355,2.2,3.5,36,0.00,OVC,,0.00,343.0,WeatherDisplay:10.37,2013-03-09 18:47:00,
2013-03-09 13:52:00,73.2,44.6,30.17,NE,39,0.6,3.5,36,0.00,OVC,,0.00,336.0,WeatherDisplay:10.37,2013-03-09 18:52:00,
2013-03-09 13:57:00,73.3,44.7,30.17,NNE,26,1.7,5.8,36,0.00,OVC,,0.00,264.0,WeatherDisplay:10.37,2013-03-09 18:57:00,
2013-03-09 14:02:00,73.0,44.5,30.17,NNE,30,2.9,3.5,36,0.00,OVC,,0.00,301.0,WeatherDisplay:10.37,2013-03-09 19:02:00,
2013-03-09 14:07:00,72.8,44.3,30.16,ESE,102,3.8,5.0,36,0.00,OVC,,0.00,316.0,WeatherDisplay:10.37,2013-03-09 19:07:00,
2013-03-09 14:12:00,72.8,44.3,30.16,NE,35,1.9,4.0,36,0.00,OVC,,0.00,323.0,WeatherDisplay:10.37,2013-03-09 19:12:00,
2013-03-09 14:17:00,73.3,44.7,30.17,NE,34,2.6,5.8,36,0.00,OVC,,0.00,352.0,WeatherDisplay:10.37,2013-03-09 19:17:00,
2013-03-09 14:22:00,73.8,45.2,30.17,North,360,1.9,3.5,36,0.00,OVC,,0.00,413.0,WeatherDisplay:10.37,2013-03-09 19:22:00,
2013-03-09 14:27:00,73.9,45.3,30.17,NE,56,3.7,5.8,36,0.00,OVC,,0.00,387.0,WeatherDisplay:10.37,2013-03-09 19:27:00,
2013-03-09 14:32:00,73.8,44.4,30.17,NNE,22,3.5,5.8,35,0.00,OVC,,0.00,401.0,WeatherDisplay:10.37,2013-03-09 19:32:00,
2013-03-09 14:37:00,74.0,44.6,30.17,NE,46,1.9,3.5,35,0.00,OVC,,0.00,408.0,WeatherDisplay:10.37,2013-03-09 19:37:00,
2013-03-09 14:42:00,73.9,44.5,30.17,NNE,26,1.7,3.5,35,0.00,OVC,,0.00,380.0,WeatherDisplay:10.37,2013-03-09 19:42:00,
2013-03-09 14:47:00,73.9,44.5,30.17,NE,36,0.0,2.3,35,0.00,OVC,,0.00,415.0,WeatherDisplay:10.37,2013-03-09 19:47:00,
2013-03-09 14:52:00,73.9,43.8,30.17,NNW,342,0.8,3.5,34,0.00,OVC,,0.00,561.0,WeatherDisplay:10.37,2013-03-09 19:52:00,
2013-03-09 14:57:00,74.5,45.0,30.17,North,11,2.2,3.5,35,0.00,OVC,,0.00,680.0,WeatherDisplay:10.37,2013-03-09 19:57:00,
2013-03-09 15:02:00,75.3,45.0,30.17,SE,136,6.0,7.0,34,0.00,OVC,,0.00,696.0,WeatherDisplay:10.37,2013-03-09 20:02:00,
2013-03-09 15:07:00,75.5,45.2,30.17,SE,127,3.2,5.8,34,0.00,OVC,,0.00,547.0,WeatherDisplay:10.37,2013-03-09 20:07:00,
2013-03-09 15:12:00,75.5,45.2,30.16,South,189,1.5,3.5,34,0.00,OVC,,0.00,513.0,WeatherDisplay:10.37,2013-03-09 20:12:00,
2013-03-09 15:17:00,75.6,45.2,30.16,ENE,61,1.8,2.3,34,0.00,OVC,,0.00,578.0,WeatherDisplay:10.37,2013-03-09 20:17:00,
2013-03-09 15:22:00,75.1,44.8,30.16,North,351,3.9,5.8,34,0.00,OVC,,0.00,533.0,WeatherDisplay:10.37,2013-03-09 20:22:00,
2013-03-09 15:27:00,75.6,45.2,30.16,NNE,28,2.6,3.5,34,0.00,OVC,,0.00,445.0,WeatherDisplay:10.37,2013-03-09 20:27:00,
2013-03-09 15:32:00,75.5,45.2,30.16,ENE,78,3.1,3.5,34,0.00,OVC,,0.00,290.0,WeatherDisplay:10.37,2013-03-09 20:32:00,
2013-03-09 15:37:00,74.8,45.3,30.16,SSE,163,1.0,4.0,35,0.00,OVC,,0.00,306.0,WeatherDisplay:10.37,2013-03-09 20:37:00,
2013-03-09 15:42:00,75.0,45.5,30.15,North,5,2.2,5.0,35,0.00,OVC,,0.00,271.0,WeatherDisplay:10.37,2013-03-09 20:42:00,
2013-03-09 15:47:00,75.2,45.7,30.15,NE,39,0.9,1.2,35,0.00,OVC,,0.00,281.0,WeatherDisplay:10.37,2013-03-09 20:47:00,
2013-03-09 15:52:00,75.1,45.6,30.15,NNE,27,0.9,2.3,35,0.00,OVC,,0.00,230.0,WeatherDisplay:10.37,2013-03-09 20:52:00,
2013-03-09 15:57:00,75.0,45.5,30.15,ENE,57,1.7,4.0,35,0.00,OVC,,0.00,185.0,WeatherDisplay:10.37,2013-03-09 20:57:00,
2013-03-09 16:02:00,74.5,45.8,30.15,East,86,1.6,5.0,36,0.00,OVC,,0.00,204.0,WeatherDisplay:10.37,2013-03-09 21:02:00,
2013-03-09 16:07:00,74.6,45.9,30.15,NE,41,2.5,4.0,36,0.00,OVC,,0.00,216.0,WeatherDisplay:10.37,2013-03-09 21:07:00,
2013-03-09 16:12:00,74.4,45.7,30.15,ENE,63,3.7,5.8,36,0.00,OVC,,0.00,220.0,WeatherDisplay:10.37,2013-03-09 21:12:00,
2013-03-09 16:17:00,74.2,46.2,30.15,NE,49,3.0,4.0,37,0.00,OVC,,0.00,197.0,WeatherDisplay:10.37,2013-03-09 21:17:00,
2013-03-09 16:22:00,74.2,46.2,30.15,NE,56,4.1,5.8,37,0.00,OVC,,0.00,183.0,WeatherDisplay:10.37,2013-03-09 21:22:00,
2013-03-09 16:27:00,74.0,46.1,30.15,NE,34,1.3,6.9,37,0.00,OVC,,0.00,153.0,WeatherDisplay:10.37,2013-03-09 21:27:00,
2013-03-09 16:32:00,73.8,45.9,30.15,NE,46,1.6,4.0,37,0.00,OVC,,0.00,151.0,WeatherDisplay:10.37,2013-03-09 21:32:00,
2013-03-09 16:37:00,73.6,45.7,30.16,ENE,65,2.6,5.8,37,0.00,OVC,,0.00,176.0,WeatherDisplay:10.37,2013-03-09 21:37:00,
2013-03-09 16:42:00,73.5,45.6,30.16,North,360,2.7,4.6,37,0.00,OVC,,0.00,171.0,WeatherDisplay:10.37,2013-03-09 21:42:00,
2013-03-09 16:47:00,73.6,45.7,30.16,ENE,69,0.6,3.5,37,0.00,OVC,,0.00,153.0,WeatherDisplay:10.37,2013-03-09 21:47:00,
2013-03-09 16:52:00,73.7,45.8,30.16,NNW,347,0.7,3.5,37,0.00,CLR,,0.00,125.0,WeatherDisplay:10.37,2013-03-09 21:52:00,
2013-03-09 16:57:00,73.6,45.7,30.16,NNW,342,2.6,4.6,37,0.00,CLR,,0.00,120.0,WeatherDisplay:10.37,2013-03-09 21:57:00,
2013-03-09 17:02:00,73.5,46.3,30.15,NNE,25,1.9,4.6,38,0.00,CLR,,0.00,116.0,WeatherDisplay:10.37,2013-03-09 22:02:00,
2013-03-09 17:08:00,73.4,46.2,30.15,NNE,32,1.7,3.5,38,0.00,CLR,,0.00,116.0,WeatherDisplay:10.37,2013-03-09 22:08:00,
2013-03-09 17:13:00,73.4,46.2,30.16,NE,55,1.1,3.5,38,0.00,CLR,,0.00,116.0,WeatherDisplay:10.37,2013-03-09 22:13:00,
2013-03-09 17:18:00,73.3,46.2,30.15,North,355,1.3,3.0,38,0.00,CLR,,0.00,111.0,WeatherDisplay:10.37,2013-03-09 22:18:00,
2013-03-09 17:23:00,72.4,49.3,30.15,West,262,0.4,3.5,44,0.00,CLR,,0.00,91.0,WeatherDisplay:10.37,2013-03-09 22:23:00,
2013-03-09 17:28:00,71.0,49.2,30.15,NNW,338,2.2,4.6,46,0.00,SCT,,0.00,65.0,WeatherDisplay:10.37,2013-03-09 22:28:00,
2013-03-09 17:33:00,70.1,48.9,30.16,North,9,3.2,3.5,47,0.00,SCT,,0.00,70.0,WeatherDisplay:10.37,2013-03-09 22:33:00,
2013-03-09 17:38:00,69.6,49.0,30.16,NNW,338,0.8,3.5,48,0.00,SCT,,0.00,88.0,WeatherDisplay:10.37,2013-03-09 22:38:00,
2013-03-09 17:43:00,69.4,49.4,30.16,NE,44,1.3,2.3,49,0.00,SCT,,0.00,102.0,WeatherDisplay:10.37,2013-03-09 22:43:00,
2013-03-09 17:48:00,69.5,50.0,30.16,NNW,346,1.7,2.3,50,0.00,SCT,,0.00,81.0,WeatherDisplay:10.37,2013-03-09 22:48:00,
2013-03-09 17:53:00,69.1,49.7,30.15,NNW,342,2.9,5.8,50,0.00,BKN,,0.00,56.0,WeatherDisplay:10.37,2013-03-09 22:53:00,
2013-03-09 17:58:00,68.7,49.8,30.16,North,5,1.8,3.5,51,0.00,BKN,,0.00,39.0,WeatherDisplay:10.37,2013-03-09 22:58:00,
2013-03-09 18:03:00,68.4,49.6,30.16,North,360,0.1,1.2,51,0.00,BKN,,0.00,30.0,WeatherDisplay:10.37,2013-03-09 23:03:00,
2013-03-09 18:08:00,68.1,48.8,30.16,North,351,1.5,3.5,50,0.00,BKN,,0.00,26.0,WeatherDisplay:10.37,2013-03-09 23:08:00,
2013-03-09 18:13:00,67.9,48.6,30.17,North,355,1.8,4.6,50,0.00,BKN,,0.00,23.0,WeatherDisplay:10.37,2013-03-09 23:13:00,
2013-03-09 18:18:00,67.6,48.3,30.17,NNW,348,0.1,2.3,50,0.00,BKN,,0.00,18.0,WeatherDisplay:10.37,2013-03-09 23:18:00,
2013-03-09 18:23:00,67.4,48.6,30.17,NNW,345,1.6,3.5,51,0.00,,,0.00,11.0,WeatherDisplay:10.37,2013-03-09 23:23:00,
2013-03-09 18:28:00,67.1,48.4,30.17,NW,319,1.7,3.5,51,0.00,,,0.00,5.0,WeatherDisplay:10.37,2013-03-09 23:28:00,
2013-03-09 18:33:00,66.9,48.7,30.17,NNW,344,1.9,3.5,52,0.00,,,0.00,0.0,WeatherDisplay:10.37,2013-03-09 23:33:00,
2013-03-09 18:38:00,66.7,48.5,30.18,North,355,1.9,3.5,52,0.00,,,0.00,0.0,WeatherDisplay:10.37,2013-03-09 23:38:00,
2013-03-09 18:43:00,66.6,48.4,30.18,NNW,342,2.4,3.5,52,0.00,,,0.00,0.0,WeatherDisplay:10.37,2013-03-09 23:43:00,
2013-03-09 18:48:00,66.4,48.7,30.18,NNW,327,1.8,3.5,53,0.00,,,0.00,0.0,WeatherDisplay:10.37,2013-03-09 23:48:00,
2013-03-09 18:53:00,66.1,48.5,30.18,North,355,1.1,2.3,53,0.00,,,0.00,0.0,WeatherDisplay:10.37,2013-03-09 23:53:00,
2013-03-09 18:58:00,66.0,48.4,30.18,NNW,346,2.3,3.5,53,0.00,,,0.00,0.0,WeatherDisplay:10.37,2013-03-09 23:58:00,
2013-03-09 19:03:00,65.8,48.7,30.18,NNW,339,1.0,3.5,54,0.00,,,0.00,0.0,WeatherDisplay:10.37,2013-03-10 00:03:00,
2013-03-09 19:08:00,65.6,48.5,30.18,North,360,0.1,3.5,54,0.00,,,0.00,0.0,WeatherDisplay:10.37,2013-03-10 00:08:00,
2013-03-09 19:13:00,65.4,48.8,30.18,North,360,1.6,3.5,55,0.00,,,0.00,0.0,WeatherDisplay:10.37,2013-03-10 00:13:00,
2013-03-09 19:18:00,65.3,48.7,30.19,North,355,1.4,2.3,55,0.00,,,0.00,0.0,WeatherDisplay:10.37,2013-03-10 00:18:00,
2013-03-09 19:23:00,65.1,49.0,30.19,NNW,331,1.1,3.5,56,0.00,,,0.00,0.0,WeatherDisplay:10.37,2013-03-10 00:23:00,
2013-03-09 19:28:00,65.0,48.4,30.19,North,10,3.9,4.6,55,0.00,,,0.00,0.0,WeatherDisplay:10.37,2013-03-10 00:28:00,
2013-03-09 19:33:00,64.9,48.3,30.19,North,360,2.0,3.5,55,0.00,,,0.00,0.0,WeatherDisplay:10.37,2013-03-10 00:33:00,
2013-03-09 19:38:00,64.7,48.2,30.19,NNW,347,1.6,2.3,55,0.00,,,0.00,0.0,WeatherDisplay:10.37,2013-03-10 00:38:00,
2013-03-09 19:43:00,64.5,48.4,30.20,NNE,27,1.5,4.6,56,0.00,,,0.00,0.0,WeatherDisplay:10.37,2013-03-10 00:43:00,
2013-03-09 19:48:00,64.2,48.2,30.19,NNW,344,1.5,3.5,56,0.00,,,0.00,0.0,WeatherDisplay:10.37,2013-03-10 00:48:00,
2013-03-09 19:53:00,64.1,48.5,30.19,NNW,343,1.9,3.5,57,0.00,,,0.00,0.0,WeatherDisplay:10.37,2013-03-10 00:53:00,
2013-03-09 19:58:00,64.0,48.5,30.19,North,5,2.1,3.5,57,0.00,,,0.00,0.0,WeatherDisplay:10.37,2013-03-10 00:58:00,
2013-03-09 20:03:00,63.8,48.3,30.19,NNW,348,1.5,3.5,57,0.00,,,0.00,0.0,WeatherDisplay:10.37,2013-03-10 01:03:00,
2013-03-09 20:08:00,63.6,48.1,30.18,NNW,341,1.4,3.5,57,0.00,,,0.00,0.0,WeatherDisplay:10.37,2013-03-10 01:08:00,
2013-03-09 20:13:00,63.6,48.5,30.18,NNE,17,2.5,3.5,58,0.00,,,0.00,0.0,WeatherDisplay:10.37,2013-03-10 01:13:00,
2013-03-09 20:18:00,63.6,48.5,30.18,North,5,1.3,3.5,58,0.00,,,0.00,0.0,WeatherDisplay:10.37,2013-03-10 01:18:00,
2013-03-09 20:23:00,63.5,48.5,30.19,North,360,0.4,1.2,58,0.00,,,0.00,0.0,WeatherDisplay:10.37,2013-03-10 01:23:00,
2013-03-09 20:28:00,63.4,48.4,30.18,NNE,23,0.8,1.2,58,0.00,,,0.00,0.0,WeatherDisplay:10.37,2013-03-10 01:28:00,
2013-03-09 20:33:00,63.3,48.7,30.18,NNE,32,1.4,3.5,59,0.00,,,0.00,0.0,WeatherDisplay:10.37,2013-03-10 01:33:00,
2013-03-09 20:38:00,63.2,48.6,30.18,NE,36,2.0,3.5,59,0.00,,,0.00,0.0,WeatherDisplay:10.37,2013-03-10 01:38:00,
2013-03-09 20:43:00,63.1,48.5,30.18,NNE,14,0.5,2.3,59,0.00,,,0.00,0.0,WeatherDisplay:10.37,2013-03-10 01:43:00,
2013-03-09 20:48:00,62.9,48.8,30.19,NE,40,0.0,1.2,60,0.00,,,0.00,0.0,WeatherDisplay:10.37,2013-03-10 01:48:00,
2013-03-09 20:53:00,62.8,49.1,30.19,NE,53,0.9,3.5,61,0.00,,,0.00,0.0,WeatherDisplay:10.37,2013-03-10 01:53:00,
2013-03-09 20:58:00,62.6,49.4,30.19,NE,55,1.6,3.0,62,0.00,,,0.00,0.0,WeatherDisplay:10.37,2013-03-10 01:58:00,
2013-03-09 21:03:00,62.5,49.7,30.19,ENE,69,1.5,3.5,63,0.00,,,0.00,0.0,WeatherDisplay:10.37,2013-03-10 02:03:00,
2013-03-09 21:08:00,62.4,50.5,30.19,NE,38,0.2,1.2,65,0.00,,,0.00,0.0,WeatherDisplay:10.37,2013-03-10 02:08:00,
2013-03-09 21:13:00,62.3,50.4,30.19,NE,36,1.2,2.3,65,0.00,,,0.00,0.0,WeatherDisplay:10.37,2013-03-10 02:13:00,
2013-03-09 21:18:00,62.1,50.6,30.19,NE,37,0.7,2.3,66,0.00,,,0.00,0.0,WeatherDisplay:10.37,2013-03-10 02:18:00,
2013-03-09 21:23:00,61.9,51.2,30.19,North,10,0.1,3.5,68,0.00,,,0.00,0.0,WeatherDisplay:10.37,2013-03-10 02:23:00,
2013-03-09 21:28:00,62.0,51.7,30.20,East,91,0.3,1.2,69,0.00,,,0.00,0.0,WeatherDisplay:10.37,2013-03-10 02:28:00,
2013-03-09 21:33:00,62.0,51.7,30.20,East,87,0.1,1.2,69,0.00,,,0.00,0.0,WeatherDisplay:10.37,2013-03-10 02:33:00,
2013-03-09 21:38:00,61.5,51.6,30.20,East,87,0.0,0.0,70,0.00,,,0.00,0.0,WeatherDisplay:10.37,2013-03-10 02:38:00,
2013-03-09 21:43:00,61.2,52.1,30.20,ENE,78,0.1,1.0,72,0.00,,,0.00,0.0,WeatherDisplay:10.37,2013-03-10 02:43:00,
2013-03-09 21:48:00,61.3,52.6,30.20,NE,41,2.2,4.6,73,0.00,,,0.00,0.0,WeatherDisplay:10.37,2013-03-10 02:48:00,
2013-03-09 21:53:00,62.1,52.6,30.20,ESE,121,2.7,3.5,71,0.00,,,0.00,0.0,WeatherDisplay:10.37,2013-03-10 02:53:00,
2013-03-09 21:58:00,62.8,52.9,30.20,NE,47,2.3,6.9,70,0.00,,,0.00,0.0,WeatherDisplay:10.37,2013-03-10 02:58:00,
2013-03-09 22:03:00,63.3,53.0,30.20,ESE,115,3.2,6.9,69,0.00,,,0.00,0.0,WeatherDisplay:10.37,2013-03-10 03:03:00,
2013-03-09 22:08:00,63.4,53.0,30.20,SE,137,0.6,3.5,69,0.00,,,0.00,0.0,WeatherDisplay:10.37,2013-03-10 03:08:00,
2013-03-09 22:13:00,63.4,53.0,30.20,ENE,77,2.1,3.5,69,0.00,,,0.00,0.0,WeatherDisplay:10.37,2013-03-10 03:13:00,
2013-03-09 22:18:00,63.4,53.0,30.20,SSE,148,2.2,4.0,69,0.00,,,0.00,0.0,WeatherDisplay:10.37,2013-03-10 03:18:00,
2013-03-09 22:23:00,63.4,53.4,30.20,North,11,1.3,3.5,70,0.00,,,0.00,0.0,WeatherDisplay:10.37,2013-03-10 03:23:00,
2013-03-09 22:28:00,63.4,53.4,30.20,SE,140,2.6,6.9,70,0.00,,,0.00,0.0,WeatherDisplay:10.37,2013-03-10 03:28:00,
2013-03-09 22:33:00,63.3,53.3,30.20,SE,124,1.0,2.3,70,0.00,,,0.00,0.0,WeatherDisplay:10.37,2013-03-10 03:33:00,
2013-03-09 22:38:00,63.3,53.3,30.20,SE,136,2.8,4.6,70,0.00,,,0.00,0.0,WeatherDisplay:10.37,2013-03-10 03:38:00,
2013-03-09 22:43:00,63.3,53.3,30.20,SE,124,2.7,6.9,70,0.00,,,0.00,0.0,WeatherDisplay:10.37,2013-03-10 03:43:00,
2013-03-09 22:48:00,63.2,53.3,30.20,East,86,1.8,5.8,70,0.00,,,0.00,0.0,WeatherDisplay:10.37,2013-03-10 03:48:00,
2013-03-09 22:53:00,63.0,53.4,30.20,ESE,109,2.6,5.0,71,0.00,,,0.00,0.0,WeatherDisplay:10.37,2013-03-10 03:53:00,
2013-03-09 22:58:00,63.0,53.1,30.20,SE,146,2.8,11.0,70,0.00,,,0.00,0.0,WeatherDisplay:10.37,2013-03-10 03:58:00,
2013-03-09 23:03:00,62.9,53.0,30.20,ENE,71,2.5,5.8,70,0.00,,,0.00,0.0,WeatherDisplay:10.37,2013-03-10 04:03:00,
2013-03-09 23:08:00,62.8,52.9,30.20,ESE,119,3.3,3.5,70,0.00,,,0.00,0.0,WeatherDisplay:10.37,2013-03-10 04:08:00,
2013-03-09 23:13:00,62.7,52.8,30.19,ESE,115,1.7,3.5,70,0.00,,,0.00,0.0,WeatherDisplay:10.37,2013-03-10 04:13:00,
2013-03-09 23:18:00,62.6,53.1,30.20,ESE,113,3.5,5.8,71,0.00,,,0.00,0.0,WeatherDisplay:10.37,2013-03-10 04:18:00,
2013-03-09 23:23:00,62.5,53.0,30.20,SSE,161,1.2,4.6,71,0.00,,,0.00,0.0,WeatherDisplay:10.37,2013-03-10 04:23:00,
2013-03-09 23:28:00,62.3,53.2,30.19,ESE,107,1.1,6.9,72,0.00,,,0.00,0.0,WeatherDisplay:10.37,2013-03-10 04:28:00,
2013-03-09 23:33:00,62.2,53.1,30.19,ESE,116,1.4,5.8,72,0.00,,,0.00,0.0,WeatherDisplay:10.37,2013-03-10 04:33:00,
2013-03-09 23:38:00,62.1,53.0,30.19,ESE,110,6.5,8.1,72,0.00,,,0.00,0.0,WeatherDisplay:10.37,2013-03-10 04:38:00,
2013-03-09 23:43:00,62.1,53.3,30.18,ESE,116,0.6,3.5,73,0.00,,,0.00,0.0,WeatherDisplay:10.37,2013-03-10 04:43:00,
2013-03-09 23:48:00,62.0,53.2,30.18,SE,141,3.4,9.2,73,0.00,,,0.00,0.0,WeatherDisplay:10.37,2013-03-10 04:48:00,
2013-03-09 23:54:00,61.9,53.1,30.18,ESE,122,2.1,8.0,73,0.00,,,0.00,0.0,WeatherDisplay:10.37,2013-03-10 04:54:00,
2013-03-09 23:59:00,61.8,53.1,30.18,ESE,116,1.8,3.5,73,0.00,,,0.00,0.0,WeatherDisplay:10.37,2013-03-10 04:59:00,